Location: Unspecified
(43.8044°N, 11.0278°E)
Time: 03:35:59
(UTC+02:00)

Resurs 1-4 Rocket - Visible Passes

Search period start: 22 October 2014 00:00
Search period end: 31 October 2014 23:00
Orbit: 801 x 814 km, 98.4° (Epoch: 21 October)

Date Brightness Start Highest point End Pass type
(mag) Time Alt. Az. Time Alt. Az. Time Alt. Az.
22 Oct 4.5 04:06:54 10° NE 04:10:33 19° E 04:13:29 12° SE visible
22 Oct 2.1 05:45:35 10° N 05:50:49 60° WNW 05:54:34 19° SSW visible
23 Oct 5.0 03:44:35 10° ENE 03:45:47 11° E 03:46:59 10° E visible
23 Oct 2.0 05:21:05 10° NNE 05:26:26 85° ESE 05:29:38 25° SSW visible
23 Oct 3.7 07:02:43 10° NNW 07:05:34 15° WNW 07:08:24 10° W visible
24 Oct 2.8 04:56:46 10° NNE 05:01:58 52° E 05:04:42 27° SSE visible
24 Oct 3.2 06:37:24 10° NNW 06:41:28 23° WNW 06:45:31 10° WSW visible
25 Oct 3.7 04:32:41 10° NNE 04:37:25 32° E 04:39:46 22° SE visible
25 Oct 2.7 06:12:29 10° N 06:17:16 35° WNW 06:20:51 16° SW visible
26 Oct 4.4 03:08:59 10° NE 03:12:46 20° E 03:14:49 16° ESE visible
26 Oct 2.1 04:47:48 10° N 04:53:00 57° WNW 04:55:54 26° SW visible
27 Oct 4.9 02:46:19 10° ENE 02:48:02 11° E 02:49:43 10° ESE visible
27 Oct 2.0 04:23:17 10° NNE 04:28:37 89° ESE 04:30:57 35° SSW visible
27 Oct 3.7 06:05:05 10° NNW 06:07:43 14° WNW 06:10:21 10° W visible
28 Oct 2.7 03:58:57 10° NNE 04:04:10 55° E 04:06:00 37° SSE visible
28 Oct 3.3 05:39:40 10° NNW 05:43:37 22° WNW 05:47:05 12° WSW visible
29 Oct 3.6 03:34:50 10° NNE 03:39:37 33° E 03:41:03 29° SE visible
29 Oct 2.7 05:14:43 10° N 05:19:26 34° WNW 05:22:08 21° WSW visible
30 Oct 4.3 03:11:04 10° NE 03:14:59 21° E 03:16:06 19° ESE visible
30 Oct 2.2 04:50:01 10° N 04:55:10 54° WNW 04:57:11 34° SW visible
31 Oct 4.9 02:48:11 10° ENE 02:50:15 12° E 02:51:09 12° E visible
31 Oct 2.0 04:25:29 10° NNE 04:30:49 86° WNW 04:32:13 51° SSW visible
31 Oct 3.8 06:07:27 10° NNW 06:09:52 13° WNW 06:12:16 10° W visible
